This demonstration page uses our WeatherBlox Daily Observations layout. Learn more.

Hourly Observations for October 27, 2019

Temp ( °F °C ) Dew Point ( °F °C ) Humidity (%) Winds ( mph kmh ) Pressure ( in mb ) Visibility ( mi km ) Precip ( " mm )
12:54 am 00:54 Clear 47 8.3 38 3.3 71 71 NNW 12 19 29.8 1009 10 16.09344 0 0
1:54 am 01:54 Clear 45 7.2 36 2.2 71 71 NNW 13 20 29.83 1010 10 16.09344 0 0
2:54 am 02:54 Clear 43 6.1 34 1.1 71 71 N 17 28 29.83 1010 10 16.09344 0 0
3:54 am 03:54 Clear 42 5.6 33 0.6 71 71 NNW 15 24 29.85 1011 10 16.09344 0 0
4:54 am 04:54 Clear 41 5 33 0.6 73 73 NNW 14 22 29.88 1012 10 16.09344 0 0
5:54 am 05:54 Clear 40 4.4 32 0 73 73 N 12 19 29.94 1014 10 16.09344 0 0
6:30 am 06:30 Mostly Cloudy 40 4.4 32 0 73 73 NNW 12 19 30 1016 10 16.09344 0 0
6:54 am 06:54 Cloudy 40 4.4 33 0.6 77 77 NNW 12 19 29.97 1015 10 16.09344 0 0
7:54 am 07:54 Cloudy 42 5.6 33 0.6 71 71 NNW 24 39 30 1016 10 16.09344 0 0
8:54 am 08:54 Cloudy 42 5.6 32 0 68 68 N 18 30 30.03 1017 10 16.09344 0 0
9:54 am 09:54 Cloudy 42 5.6 32 0 68 68 N 22 35 30.06 1018 10 16.09344 0 0
10:14 am 10:14 Cloudy 42 5.6 32 0 68 68 N 17 28 30.09 1019 10 16.09344 0 0
10:34 am 10:34 Cloudy 42 5.6 31 -0.6 65 65 N 21 33 30.09 1019 10 16.09344 0 0
10:54 am 10:54 Cloudy 42 5.6 31 -0.6 65 65 NNW 21 33 30.06 1018 10 16.09344 0 0
11:54 am 11:54 Cloudy 42 5.6 31 -0.6 65 65 N 20 31 30.09 1019 10 16.09344 0 0
12:54 pm 12:54 Cloudy 42 5.6 31 -0.6 65 65 N 16 26 30.09 1019 10 16.09344 0 0
1:54 pm 13:54 Cloudy 43 6.1 31 -0.6 63 63 NNW 22 35 30.06 1018 10 16.09344 0 0
2:54 pm 14:54 Cloudy 43 6.1 30 -1.1 60 60 NNW 17 28 30.09 1019 10 16.09344 0 0
3:54 pm 15:54 Cloudy 42 5.6 30 -1.1 62 62 N 18 30 30.09 1019 10 16.09344 0 0
4:54 pm 16:54 Cloudy 41 5 29 -1.7 62 62 N 18 30 30.09 1019 10 16.09344 0 0
5:54 pm 17:54 Cloudy 41 5 28 -2.2 60 60 N 18 30 30.12 1020 10 16.09344 0 0
6:54 pm 18:54 Cloudy 40 4.4 28 -2.2 63 63 N 18 30 30.15 1021 10 16.09344 0 0
7:54 pm 19:54 Cloudy 39 3.9 27 -2.8 62 62 N 17 28 30.15 1021 10 16.09344 0 0
8:54 pm 20:54 Cloudy 38 3.3 24 -4.4 57 57 NNW 14 22 30.18 1022 10 16.09344 0 0
9:54 pm 21:54 Cloudy 37 2.8 21 -6.1 52 52 N 16 26 30.21 1023 10 16.09344 0 0
10:54 pm 22:54 Cloudy 36 2.2 17 -8.3 46 46 NNW 22 35 30.21 1023 10 16.09344 0 0
11:54 pm 23:54 Cloudy 35 1.7 17 -8.3 48 48 NNW 20 31 30.21 1023 10 16.09344 0 0

Powered by AerisWeather